Time,TemperatureF,DewpointF,PressureIn,WindDirection,WindDirectionDegrees,WindSpeedMPH,WindSpeedGustMPH,Humidity,HourlyPrecipIn,Conditions,Clouds,dailyrainin,SoftwareType,DateUTC
2013-03-21 00:02:00,57.4,39.4,-100.00,East,90,1.0,0.0,51,0.00,,,0.00,meteohub,2013-03-21 05:02:00,
2013-03-21 00:07:00,57.0,39.0,-100.00,East,90,0.0,1.0,51,0.00,,,0.00,meteohub,2013-03-21 05:07:00,
2013-03-21 00:11:00,57.0,39.0,-100.00,East,90,0.0,2.0,51,0.00,,,0.00,meteohub,2013-03-21 05:11:00,
2013-03-21 00:14:00,57.0,39.0,-100.00,East,90,2.0,2.0,51,0.00,,,0.00,meteohub,2013-03-21 05:14:00,
2013-03-21 00:16:00,57.0,39.0,-100.00,East,90,2.0,2.0,51,0.00,,,0.00,meteohub,2013-03-21 05:16:00,
2013-03-21 00:20:00,57.0,38.5,-100.00,ENE,68,0.0,2.0,50,0.00,,,0.00,meteohub,2013-03-21 05:20:00,
2013-03-21 00:24:00,57.0,38.5,-100.00,East,90,0.0,2.0,50,0.00,,,0.00,meteohub,2013-03-21 05:24:00,
2013-03-21 00:28:00,57.0,38.5,-100.00,ENE,68,0.0,2.0,50,0.00,,,0.00,meteohub,2013-03-21 05:28:00,
2013-03-21 00:32:00,57.0,38.5,-100.00,ENE,68,0.0,2.0,50,0.00,,,0.00,meteohub,2013-03-21 05:32:00,
2013-03-21 00:38:00,57.0,38.5,-100.00,SE,135,0.0,0.0,50,0.00,,,0.00,meteohub,2013-03-21 05:38:00,
2013-03-21 00:44:00,57.0,38.5,-100.00,SE,135,0.0,0.0,50,0.00,,,0.00,meteohub,2013-03-21 05:44:00,
2013-03-21 00:47:00,57.0,39.0,-100.00,SE,135,0.0,0.0,51,0.00,,,0.00,meteohub,2013-03-21 05:47:00,
2013-03-21 00:50:00,57.0,39.0,-100.00,SE,135,0.0,0.0,51,0.00,,,0.00,meteohub,2013-03-21 05:50:00,
2013-03-21 00:52:00,56.8,38.8,-100.00,SE,135,0.0,0.0,51,0.00,,,0.00,meteohub,2013-03-21 05:52:00,
2013-03-21 00:58:00,56.8,38.8,-100.00,ESE,113,0.0,0.0,51,0.00,,,0.00,meteohub,2013-03-21 05:58:00,
2013-03-21 01:02:00,56.8,38.8,-100.00,East,90,0.0,0.0,51,0.00,,,0.00,meteohub,2013-03-21 06:02:00,
2013-03-21 01:06:00,56.8,38.8,-100.00,East,90,0.0,0.0,51,0.00,,,0.00,meteohub,2013-03-21 06:06:00,
2013-03-21 01:10:00,56.5,39.0,-100.00,East,90,0.0,0.0,52,0.00,,,0.00,meteohub,2013-03-21 06:10:00,
2013-03-21 01:14:00,56.5,39.0,-100.00,East,90,0.0,0.0,52,0.00,,,0.00,meteohub,2013-03-21 06:14:00,
2013-03-21 01:16:00,56.5,39.0,-100.00,East,90,0.0,0.0,52,0.00,,,0.00,meteohub,2013-03-21 06:16:00,
2013-03-21 01:17:00,56.5,39.0,-100.00,East,90,0.0,0.0,52,0.00,,,0.00,meteohub,2013-03-21 06:17:00,
2013-03-21 01:22:00,56.5,39.0,-100.00,East,90,0.0,0.0,52,0.00,,,0.00,meteohub,2013-03-21 06:22:00,
2013-03-21 01:24:00,56.5,39.0,-100.00,East,90,0.0,0.0,52,0.00,,,0.00,meteohub,2013-03-21 06:24:00,
2013-03-21 01:28:00,56.5,39.0,-100.00,East,90,0.0,0.0,52,0.00,,,0.00,meteohub,2013-03-21 06:28:00,
2013-03-21 01:30:00,56.3,38.8,-100.00,East,90,0.0,0.0,52,0.00,,,0.00,meteohub,2013-03-21 06:30:00,
2013-03-21 01:34:00,56.3,39.4,-100.00,East,90,0.0,0.0,53,0.00,,,0.00,meteohub,2013-03-21 06:34:00,
2013-03-21 01:38:00,56.3,39.4,-100.00,East,90,0.0,0.0,53,0.00,,,0.00,meteohub,2013-03-21 06:38:00,
2013-03-21 01:40:00,56.3,39.4,-100.00,East,90,0.0,0.0,53,0.00,,,0.00,meteohub,2013-03-21 06:40:00,
2013-03-21 01:44:00,56.1,39.2,-100.00,East,90,0.0,0.0,53,0.00,,,0.00,meteohub,2013-03-21 06:44:00,
2013-03-21 01:46:00,56.1,39.2,-100.00,East,90,0.0,0.0,53,0.00,,,0.00,meteohub,2013-03-21 06:46:00,
2013-03-21 01:47:00,56.1,39.2,-100.00,East,90,0.0,0.0,53,0.00,,,0.00,meteohub,2013-03-21 06:47:00,
2013-03-21 01:51:00,56.1,39.2,-100.00,East,90,0.0,0.0,53,0.00,,,0.00,meteohub,2013-03-21 06:51:00,
2013-03-21 01:53:00,55.9,39.0,-100.00,East,90,0.0,0.0,53,0.00,,,0.00,meteohub,2013-03-21 06:53:00,
2013-03-21 01:57:00,55.9,39.0,-100.00,East,90,0.0,0.0,53,0.00,,,0.00,meteohub,2013-03-21 06:57:00,
2013-03-21 01:59:00,55.9,39.0,-100.00,East,90,0.0,0.0,53,0.00,,,0.00,meteohub,2013-03-21 06:59:00,
2013-03-21 02:03:00,55.9,39.0,-100.00,East,90,0.0,0.0,53,0.00,,,0.00,meteohub,2013-03-21 07:03:00,
2013-03-21 02:05:00,55.9,39.0,-100.00,East,90,0.0,0.0,53,0.00,,,0.00,meteohub,2013-03-21 07:05:00,
2013-03-21 02:07:00,55.9,39.0,-100.00,East,90,0.0,0.0,53,0.00,,,0.00,meteohub,2013-03-21 07:07:00,
2013-03-21 02:13:00,55.9,39.0,-100.00,East,90,0.0,0.0,53,0.00,,,0.00,meteohub,2013-03-21 07:13:00,
2013-03-21 02:15:00,55.9,39.0,-100.00,East,90,0.0,0.0,53,0.00,,,0.00,meteohub,2013-03-21 07:15:00,
2013-03-21 02:17:00,55.9,39.0,-100.00,ENE,68,0.0,0.0,53,0.00,,,0.00,meteohub,2013-03-21 07:17:00,
2013-03-21 02:23:00,55.9,39.0,-100.00,SSW,203,1.0,0.0,53,0.00,,,0.00,meteohub,2013-03-21 07:23:00,
2013-03-21 02:25:00,55.9,39.0,-100.00,SSW,203,0.0,1.0,53,0.00,,,0.00,meteohub,2013-03-21 07:25:00,
2013-03-21 02:27:00,55.9,39.6,-100.00,ESE,113,1.0,1.0,54,0.00,,,0.00,meteohub,2013-03-21 07:27:00,
2013-03-21 02:29:00,56.1,39.7,-100.00,NE,45,2.0,2.0,54,0.00,,,0.00,meteohub,2013-03-21 07:29:00,
2013-03-21 02:31:00,56.1,39.2,-100.00,ESE,113,3.0,3.0,53,0.00,,,0.00,meteohub,2013-03-21 07:31:00,
2013-03-21 02:33:00,56.1,39.2,-100.00,ESE,113,3.0,3.0,53,0.00,,,0.00,meteohub,2013-03-21 07:33:00,
2013-03-21 02:37:00,56.5,39.6,-100.00,SW,225,1.0,3.0,53,0.00,,,0.00,meteohub,2013-03-21 07:37:00,
2013-03-21 02:39:00,56.5,39.6,-100.00,South,180,0.0,3.0,53,0.00,,,0.00,meteohub,2013-03-21 07:39:00,
2013-03-21 02:45:00,56.8,39.9,-100.00,SW,225,2.0,3.0,53,0.00,,,0.00,meteohub,2013-03-21 07:45:00,
2013-03-21 02:47:00,56.8,39.9,-100.00,SSW,203,2.0,3.0,53,0.00,,,0.00,meteohub,2013-03-21 07:47:00,
2013-03-21 02:51:00,57.0,40.1,-100.00,ENE,68,0.0,2.0,53,0.00,,,0.00,meteohub,2013-03-21 07:51:00,
2013-03-21 02:53:00,57.0,40.1,-100.00,SSE,158,1.0,2.0,53,0.00,,,0.00,meteohub,2013-03-21 07:53:00,
2013-03-21 02:57:00,57.0,40.1,-100.00,SE,135,0.0,2.0,53,0.00,,,0.00,meteohub,2013-03-21 07:57:00,
2013-03-21 03:01:00,57.2,40.3,-100.00,ENE,68,2.0,2.0,53,0.00,,,0.00,meteohub,2013-03-21 08:01:00,
2013-03-21 03:03:00,57.2,40.3,-100.00,SE,135,0.0,2.0,53,0.00,,,0.00,meteohub,2013-03-21 08:03:00,
2013-03-21 03:07:00,57.4,40.5,-100.00,NE,45,4.0,4.0,53,0.00,,,0.00,meteohub,2013-03-21 08:07:00,
2013-03-21 03:10:00,57.4,40.5,-100.00,SSW,203,2.0,2.0,53,0.00,,,0.00,meteohub,2013-03-21 08:10:00,
2013-03-21 03:12:00,57.4,40.5,-100.00,ESE,113,3.0,4.0,53,0.00,,,0.00,meteohub,2013-03-21 08:12:00,
2013-03-21 03:14:00,57.4,40.8,-100.00,SE,135,0.0,4.0,54,0.00,,,0.00,meteohub,2013-03-21 08:14:00,
2013-03-21 03:16:00,57.6,40.6,-100.00,SE,135,2.0,4.0,53,0.00,,,0.00,meteohub,2013-03-21 08:16:00,
2013-03-21 03:18:00,57.6,41.0,-100.00,SSW,203,2.0,4.0,54,0.00,,,0.00,meteohub,2013-03-21 08:18:00,
2013-03-21 03:22:00,57.7,41.2,-100.00,SSW,203,4.0,4.0,54,0.00,,,0.00,meteohub,2013-03-21 08:22:00,
2013-03-21 03:28:00,57.7,41.2,-100.00,SE,135,0.0,4.0,54,0.00,,,0.00,meteohub,2013-03-21 08:28:00,
2013-03-21 03:30:00,57.7,41.2,-100.00,ESE,113,1.0,4.0,54,0.00,,,0.00,meteohub,2013-03-21 08:30:00,
2013-03-21 03:32:00,57.7,41.2,-100.00,SSE,158,4.0,4.0,54,0.00,,,0.00,meteohub,2013-03-21 08:32:00,
2013-03-21 03:38:00,57.7,41.2,-100.00,South,180,0.0,4.0,54,0.00,,,0.00,meteohub,2013-03-21 08:38:00,
2013-03-21 03:40:00,57.9,41.4,-100.00,SSW,203,1.0,4.0,54,0.00,,,0.00,meteohub,2013-03-21 08:40:00,
2013-03-21 03:42:00,57.9,41.4,-100.00,South,180,2.0,4.0,54,0.00,,,0.00,meteohub,2013-03-21 08:42:00,
2013-03-21 03:47:00,57.9,41.9,-100.00,SSW,203,0.0,4.0,55,0.00,,,0.00,meteohub,2013-03-21 08:47:00,
2013-03-21 03:48:00,57.9,41.9,-100.00,SSW,203,0.0,4.0,55,0.00,,,0.00,meteohub,2013-03-21 08:48:00,
2013-03-21 03:50:00,57.9,41.9,-100.00,SSE,158,0.0,2.0,55,0.00,,,0.00,meteohub,2013-03-21 08:50:00,
2013-03-21 03:52:00,57.9,41.9,-100.00,SSE,158,0.0,2.0,55,0.00,,,0.00,meteohub,2013-03-21 08:52:00,
2013-03-21 03:56:00,57.9,41.9,-100.00,SSE,158,2.0,2.0,55,0.00,,,0.00,meteohub,2013-03-21 08:56:00,
2013-03-21 03:58:00,57.9,41.9,-100.00,SE,135,2.0,2.0,55,0.00,,,0.00,meteohub,2013-03-21 08:58:00,
2013-03-21 04:00:00,57.9,41.9,-100.00,South,180,0.0,2.0,55,0.00,,,0.00,meteohub,2013-03-21 09:00:00,
2013-03-21 04:02:00,57.9,41.9,-100.00,SW,225,2.0,2.0,55,0.00,,,0.00,meteohub,2013-03-21 09:02:00,
2013-03-21 04:06:00,57.9,41.9,-100.00,South,180,2.0,2.0,55,0.00,,,0.00,meteohub,2013-03-21 09:06:00,
2013-03-21 04:12:00,57.9,41.9,-100.00,South,180,3.0,3.0,55,0.00,,,0.00,meteohub,2013-03-21 09:12:00,
2013-03-21 04:14:00,57.9,41.9,-100.00,SSW,203,3.0,3.0,55,0.00,,,0.00,meteohub,2013-03-21 09:14:00,
2013-03-21 04:16:00,57.9,41.9,-100.00,South,180,1.0,3.0,55,0.00,,,0.00,meteohub,2013-03-21 09:16:00,
2013-03-21 04:20:00,57.9,41.9,-100.00,South,180,1.0,3.0,55,0.00,,,0.00,meteohub,2013-03-21 09:20:00,
2013-03-21 04:22:00,57.9,41.9,-100.00,SW,225,0.0,3.0,55,0.00,,,0.00,meteohub,2013-03-21 09:22:00,
2013-03-21 04:25:00,57.9,41.9,-100.00,SW,225,0.0,3.0,55,0.00,,,0.00,meteohub,2013-03-21 09:25:00,
2013-03-21 04:29:00,57.9,41.4,-100.00,SSW,203,0.0,3.0,54,0.00,,,0.00,meteohub,2013-03-21 09:29:00,
2013-03-21 04:31:00,58.1,41.0,-100.00,South,180,3.0,4.0,53,0.00,,,0.00,meteohub,2013-03-21 09:31:00,
2013-03-21 04:33:00,57.9,40.8,-100.00,South,180,1.0,4.0,53,0.00,,,0.00,meteohub,2013-03-21 09:33:00,
2013-03-21 04:35:00,57.9,40.8,-100.00,SSW,203,2.0,4.0,53,0.00,,,0.00,meteohub,2013-03-21 09:35:00,
2013-03-21 04:39:00,57.9,40.5,-100.00,SSE,158,1.0,4.0,52,0.00,,,0.00,meteohub,2013-03-21 09:39:00,
2013-03-21 04:41:00,57.9,39.9,-100.00,SSE,158,0.0,4.0,51,0.00,,,0.00,meteohub,2013-03-21 09:41:00,
2013-03-21 04:45:00,57.9,39.9,-100.00,South,180,2.0,4.0,51,0.00,,,0.00,meteohub,2013-03-21 09:45:00,
2013-03-21 04:47:00,57.9,39.9,-100.00,South,180,1.0,3.0,51,0.00,,,0.00,meteohub,2013-03-21 09:47:00,
2013-03-21 04:49:00,57.9,39.4,-100.00,SSW,203,2.0,3.0,50,0.00,,,0.00,meteohub,2013-03-21 09:49:00,
2013-03-21 04:51:00,57.9,38.8,-100.00,South,180,0.0,3.0,49,0.00,,,0.00,meteohub,2013-03-21 09:51:00,
2013-03-21 04:53:00,57.9,38.8,-100.00,SSW,203,4.0,4.0,49,0.00,,,0.00,meteohub,2013-03-21 09:53:00,
2013-03-21 04:55:00,57.9,38.3,-100.00,SW,225,0.0,3.0,48,0.00,,,0.00,meteohub,2013-03-21 09:55:00,
2013-03-21 04:57:00,57.9,38.3,-100.00,SSW,203,3.0,3.0,48,0.00,,,0.00,meteohub,2013-03-21 09:57:00,
2013-03-21 05:01:00,57.9,37.8,-100.00,South,180,3.0,4.0,47,0.00,,,0.00,meteohub,2013-03-21 10:01:00,
2013-03-21 05:02:00,57.9,37.8,-100.00,SE,135,3.0,4.0,47,0.00,,,0.00,meteohub,2013-03-21 10:02:00,
2013-03-21 05:03:00,57.9,37.8,-100.00,SE,135,3.0,4.0,47,0.00,,,0.00,meteohub,2013-03-21 10:03:00,
2013-03-21 05:05:00,57.9,37.2,-100.00,South,180,3.0,4.0,46,0.00,,,0.00,meteohub,2013-03-21 10:05:00,
2013-03-21 05:07:00,57.9,36.7,-100.00,SSW,203,2.0,4.0,45,0.00,,,0.00,meteohub,2013-03-21 10:07:00,
2013-03-21 05:09:00,57.9,36.7,-100.00,South,180,1.0,4.0,45,0.00,,,0.00,meteohub,2013-03-21 10:09:00,
2013-03-21 05:11:00,57.9,36.1,-100.00,SE,135,0.0,3.0,44,0.00,,,0.00,meteohub,2013-03-21 10:11:00,
2013-03-21 05:13:00,57.9,36.1,-100.00,South,180,2.0,3.0,44,0.00,,,0.00,meteohub,2013-03-21 10:13:00,
2013-03-21 05:17:00,57.9,34.9,-100.00,SSW,203,1.0,3.0,42,0.00,,,0.00,meteohub,2013-03-21 10:17:00,
2013-03-21 05:23:00,58.1,35.1,-100.00,South,180,2.0,5.0,42,0.00,,,0.00,meteohub,2013-03-21 10:23:00,
2013-03-21 05:25:00,58.1,35.1,-100.00,South,180,0.0,5.0,42,0.00,,,0.00,meteohub,2013-03-21 10:25:00,
2013-03-21 05:29:00,58.1,34.5,-100.00,SSW,203,2.0,5.0,41,0.00,,,0.00,meteohub,2013-03-21 10:29:00,
2013-03-21 05:31:00,58.1,34.5,-100.00,SW,225,2.0,5.0,41,0.00,,,0.00,meteohub,2013-03-21 10:31:00,
2013-03-21 05:37:00,58.3,34.0,-100.00,South,180,3.0,3.0,40,0.00,,,0.00,meteohub,2013-03-21 10:37:00,
2013-03-21 05:41:00,58.1,33.3,-100.00,SSW,203,2.0,5.0,39,0.00,,,0.00,meteohub,2013-03-21 10:41:00,
2013-03-21 05:43:00,58.3,33.4,-100.00,South,180,4.0,5.0,39,0.00,,,0.00,meteohub,2013-03-21 10:43:00,
2013-03-21 05:47:00,58.1,34.0,-100.00,South,180,2.0,5.0,40,0.00,,,0.00,meteohub,2013-03-21 10:47:00,
2013-03-21 05:49:00,58.1,33.3,-100.00,SE,135,2.0,5.0,39,0.00,,,0.00,meteohub,2013-03-21 10:49:00,
2013-03-21 05:51:00,58.1,33.3,-100.00,SE,135,1.0,5.0,39,0.00,,,0.00,meteohub,2013-03-21 10:51:00,
2013-03-21 05:53:00,58.3,33.4,-100.00,South,180,4.0,5.0,39,0.00,,,0.00,meteohub,2013-03-21 10:53:00,
2013-03-21 05:57:00,58.3,33.4,-100.00,SSW,203,8.0,8.0,39,0.00,,,0.00,meteohub,2013-03-21 10:57:00,
2013-03-21 05:59:00,58.3,33.4,-100.00,SE,135,2.0,4.0,39,0.00,,,0.00,meteohub,2013-03-21 10:59:00,
2013-03-21 06:01:00,58.1,33.3,-100.00,SSW,203,4.0,8.0,39,0.00,,,0.00,meteohub,2013-03-21 11:01:00,
2013-03-21 06:03:00,58.1,33.3,-100.00,SSW,203,4.0,8.0,39,0.00,,,0.00,meteohub,2013-03-21 11:03:00,
2013-03-21 06:07:00,58.3,33.4,-100.00,SE,135,4.0,8.0,39,0.00,,,0.00,meteohub,2013-03-21 11:07:00,
2013-03-21 06:09:00,58.1,34.0,-100.00,South,180,4.0,8.0,40,0.00,,,0.00,meteohub,2013-03-21 11:09:00,
2013-03-21 06:11:00,58.1,33.3,-100.00,South,180,1.0,8.0,39,0.00,,,0.00,meteohub,2013-03-21 11:11:00,
2013-03-21 06:17:00,58.3,33.4,-100.00,South,180,3.0,6.0,39,0.00,,,0.00,meteohub,2013-03-21 11:17:00,
2013-03-21 06:23:00,58.3,33.4,-100.00,SW,225,4.0,6.0,39,0.00,,,0.00,meteohub,2013-03-21 11:23:00,
2013-03-21 06:25:00,58.3,33.4,-100.00,SSE,158,6.0,6.0,39,0.00,,,0.00,meteohub,2013-03-21 11:25:00,
2013-03-21 06:29:00,58.3,33.4,-100.00,South,180,4.0,4.0,39,0.00,,,0.00,meteohub,2013-03-21 11:29:00,
2013-03-21 06:31:00,58.3,33.4,-100.00,SSW,203,5.0,6.0,39,0.00,,,0.00,meteohub,2013-03-21 11:31:00,
2013-03-21 06:32:00,58.3,33.4,-100.00,SSW,203,5.0,6.0,39,0.00,,,0.00,meteohub,2013-03-21 11:32:00,
2013-03-21 06:37:00,58.3,33.4,-100.00,SSE,158,2.0,6.0,39,0.00,,,0.00,meteohub,2013-03-21 11:37:00,
2013-03-21 06:39:00,58.3,33.4,-100.00,SSE,158,2.0,6.0,39,0.00,,,0.00,meteohub,2013-03-21 11:39:00,
2013-03-21 06:43:00,58.3,33.4,-100.00,WSW,248,0.0,6.0,39,0.00,,,0.00,meteohub,2013-03-21 11:43:00,
2013-03-21 06:45:00,58.3,33.4,-100.00,South,180,2.0,5.0,39,0.00,,,0.00,meteohub,2013-03-21 11:45:00,
2013-03-21 06:47:00,58.3,34.0,-100.00,SSE,158,0.0,5.0,40,0.00,,,0.00,meteohub,2013-03-21 11:47:00,
2013-03-21 06:49:00,58.3,34.0,-100.00,ESE,113,2.0,5.0,40,0.00,,,0.00,meteohub,2013-03-21 11:49:00,
2013-03-21 06:51:00,58.3,34.0,-100.00,SE,135,3.0,3.0,40,0.00,,,0.00,meteohub,2013-03-21 11:51:00,
2013-03-21 06:53:00,58.3,34.7,-100.00,ESE,113,3.0,3.0,41,0.00,,,0.00,meteohub,2013-03-21 11:53:00,
2013-03-21 06:58:00,58.3,34.7,-100.00,SE,135,4.0,4.0,41,0.00,,,0.00,meteohub,2013-03-21 11:58:00,
2013-03-21 07:00:00,58.3,35.2,-100.00,SSW,203,2.0,3.0,42,0.00,,,0.00,meteohub,2013-03-21 12:00:00,
2013-03-21 07:02:00,58.1,35.1,-100.00,West,270,2.0,4.0,42,0.00,,,0.00,meteohub,2013-03-21 12:02:00,
2013-03-21 07:06:00,58.3,36.0,-100.00,SE,135,3.0,4.0,43,0.00,,,0.00,meteohub,2013-03-21 12:06:00,
2013-03-21 07:08:00,58.3,36.0,-100.00,SE,135,3.0,4.0,43,0.00,,,0.00,meteohub,2013-03-21 12:08:00,
2013-03-21 07:12:00,58.1,36.3,-100.00,ESE,113,4.0,4.0,44,0.00,,,0.00,meteohub,2013-03-21 12:12:00,
2013-03-21 07:14:00,58.1,36.3,-100.00,SW,225,4.0,4.0,44,0.00,,,0.00,meteohub,2013-03-21 12:14:00,
2013-03-21 07:18:00,58.1,37.4,-100.00,SSE,158,0.0,6.0,46,0.00,,,0.00,meteohub,2013-03-21 12:18:00,
2013-03-21 07:24:00,58.1,38.5,-100.00,South,180,2.0,6.0,48,0.00,,,0.00,meteohub,2013-03-21 12:24:00,
2013-03-21 07:26:00,58.3,39.2,-100.00,SE,135,4.0,4.0,49,0.00,,,0.00,meteohub,2013-03-21 12:26:00,
2013-03-21 07:28:00,58.3,39.7,-100.00,East,90,2.0,4.0,50,0.00,,,0.00,meteohub,2013-03-21 12:28:00,
2013-03-21 07:32:00,58.3,40.8,-100.00,South,180,1.0,4.0,52,0.00,,,0.00,meteohub,2013-03-21 12:32:00,
2013-03-21 07:34:00,58.1,40.6,-100.00,SSW,203,3.0,4.0,52,0.00,,,0.00,meteohub,2013-03-21 12:34:00,
2013-03-21 07:36:00,58.1,41.0,-100.00,South,180,1.0,4.0,53,0.00,,,0.00,meteohub,2013-03-21 12:36:00,
2013-03-21 07:38:00,58.1,41.0,-100.00,SSW,203,7.0,7.0,53,0.00,,,0.00,meteohub,2013-03-21 12:38:00,
2013-03-21 07:40:00,58.1,41.5,-100.00,SSW,203,3.0,7.0,54,0.00,,,0.00,meteohub,2013-03-21 12:40:00,
2013-03-21 07:44:00,58.1,42.1,-100.00,SSE,158,3.0,7.0,55,0.00,,,0.00,meteohub,2013-03-21 12:44:00,
2013-03-21 07:46:00,58.1,42.1,-100.00,South,180,3.0,7.0,55,0.00,,,0.00,meteohub,2013-03-21 12:46:00,
2013-03-21 07:48:00,58.1,42.4,-100.00,South,180,4.0,7.0,56,0.00,,,0.00,meteohub,2013-03-21 12:48:00,
2013-03-21 07:52:00,58.1,43.0,-100.00,SW,225,2.0,7.0,57,0.00,,,0.00,meteohub,2013-03-21 12:52:00,
2013-03-21 07:54:00,58.1,43.0,-100.00,SW,225,2.0,7.0,57,0.00,,,0.00,meteohub,2013-03-21 12:54:00,
2013-03-21 08:01:00,58.1,43.3,-100.00,SSW,203,1.0,4.0,58,0.00,,,0.00,meteohub,2013-03-21 13:01:00,
2013-03-21 08:02:00,57.9,43.7,-100.00,South,180,4.0,4.0,59,0.00,,,0.00,meteohub,2013-03-21 13:02:00,
2013-03-21 08:03:00,57.9,43.7,-100.00,South,180,4.0,4.0,59,0.00,,,0.00,meteohub,2013-03-21 13:03:00,
2013-03-21 08:07:00,57.9,44.6,-100.00,South,180,2.0,4.0,61,0.00,,,0.00,meteohub,2013-03-21 13:07:00,
2013-03-21 08:13:00,57.9,45.0,-100.00,SSW,203,4.0,4.0,62,0.00,,,0.00,meteohub,2013-03-21 13:13:00,
2013-03-21 08:17:00,57.9,45.9,-100.00,SSW,203,3.0,4.0,64,0.00,,,0.00,meteohub,2013-03-21 13:17:00,
2013-03-21 08:21:00,58.1,46.4,-100.00,SSW,203,15.0,15.0,65,0.00,,,0.00,meteohub,2013-03-21 13:21:00,
2013-03-21 08:23:00,57.9,46.2,-100.00,SSW,203,2.0,4.0,65,0.00,,,0.00,meteohub,2013-03-21 13:23:00,
2013-03-21 08:25:00,57.9,46.6,-100.00,SSW,203,3.0,15.0,66,0.00,,,0.00,meteohub,2013-03-21 13:25:00,
2013-03-21 08:27:00,57.9,46.6,-100.00,SSW,203,4.0,15.0,66,0.00,,,0.00,meteohub,2013-03-21 13:27:00,
2013-03-21 08:32:00,57.9,47.5,-100.00,SSW,203,3.0,15.0,68,0.00,,,0.00,meteohub,2013-03-21 13:32:00,
2013-03-21 08:33:00,57.9,47.5,-100.00,SSE,158,2.0,15.0,68,0.00,,,0.00,meteohub,2013-03-21 13:33:00,
2013-03-21 08:35:00,57.9,47.5,-100.00,SSE,158,2.0,15.0,68,0.00,,,0.00,meteohub,2013-03-21 13:35:00,
2013-03-21 08:37:00,57.7,47.3,-100.00,SSW,203,4.0,15.0,68,0.00,,,0.00,meteohub,2013-03-21 13:37:00,
2013-03-21 08:39:00,57.7,47.7,-100.00,South,180,4.0,15.0,69,0.00,,,0.00,meteohub,2013-03-21 13:39:00,
2013-03-21 08:44:00,57.7,47.7,-100.00,SSE,158,0.0,7.0,69,0.00,,,0.00,meteohub,2013-03-21 13:44:00,
2013-03-21 08:46:00,57.9,48.2,-100.00,SSW,203,5.0,7.0,70,0.00,,,0.00,meteohub,2013-03-21 13:46:00,
2013-03-21 08:47:00,57.7,48.0,-100.00,South,180,3.0,7.0,70,0.00,,,0.00,meteohub,2013-03-21 13:47:00,
2013-03-21 08:52:00,57.9,48.6,-100.00,South,180,6.0,6.0,71,0.00,,,0.00,meteohub,2013-03-21 13:52:00,
2013-03-21 08:58:00,57.7,48.4,-100.00,SW,225,15.0,15.0,71,0.00,,,0.00,meteohub,2013-03-21 13:58:00,
2013-03-21 09:00:00,57.9,48.6,-100.00,ESE,113,4.0,11.0,71,0.00,,,0.00,meteohub,2013-03-21 14:00:00,
2013-03-21 09:02:00,57.9,48.9,-100.00,WSW,248,2.0,15.0,72,0.00,,,0.00,meteohub,2013-03-21 14:02:00,
2013-03-21 09:04:00,58.1,49.1,-100.00,SE,135,1.0,15.0,72,0.00,,,0.00,meteohub,2013-03-21 14:04:00,
2013-03-21 09:10:00,58.1,49.1,-100.00,SW,225,4.0,15.0,72,0.00,,,0.00,meteohub,2013-03-21 14:10:00,
2013-03-21 09:12:00,58.1,49.1,-100.00,NW,315,5.0,15.0,72,0.00,,,0.00,meteohub,2013-03-21 14:12:00,
2013-03-21 09:14:00,58.3,49.3,-100.00,SSW,203,4.0,15.0,72,0.00,,,0.00,meteohub,2013-03-21 14:14:00,
2013-03-21 09:18:00,58.3,49.3,-100.00,SSW,203,2.0,5.0,72,0.00,,,0.00,meteohub,2013-03-21 14:18:00,
2013-03-21 09:20:00,58.6,50.0,-100.00,SSE,158,4.0,5.0,73,0.00,,,0.00,meteohub,2013-03-21 14:20:00,
2013-03-21 09:22:00,58.6,50.0,-100.00,SSE,158,4.0,5.0,73,0.00,,,0.00,meteohub,2013-03-21 14:22:00,
2013-03-21 09:28:00,58.8,49.8,-100.00,SE,135,4.0,5.0,72,0.00,,,0.00,meteohub,2013-03-21 14:28:00,
2013-03-21 09:30:00,59.0,50.0,-100.00,South,180,6.0,12.0,72,0.00,,,0.00,meteohub,2013-03-21 14:30:00,
2013-03-21 09:32:00,59.2,50.2,-100.00,SW,225,6.0,12.0,72,0.00,,,0.00,meteohub,2013-03-21 14:32:00,
2013-03-21 09:34:00,59.5,50.5,-100.00,SSW,203,4.0,12.0,72,0.00,,,0.00,meteohub,2013-03-21 14:34:00,
2013-03-21 09:37:00,59.5,50.5,-100.00,South,180,2.0,12.0,72,0.00,,,0.00,meteohub,2013-03-21 14:37:00,
2013-03-21 09:39:00,59.7,50.4,-100.00,South,180,7.0,12.0,71,0.00,,,0.00,meteohub,2013-03-21 14:39:00,
2013-03-21 09:41:00,60.1,50.7,-100.00,SSW,203,6.0,12.0,71,0.00,,,0.00,meteohub,2013-03-21 14:41:00,
2013-03-21 09:43:00,60.3,50.9,-100.00,East,90,4.0,12.0,71,0.00,,,0.00,meteohub,2013-03-21 14:43:00,
2013-03-21 09:45:00,60.4,50.5,-100.00,SSW,203,3.0,12.0,70,0.00,,,0.00,meteohub,2013-03-21 14:45:00,
2013-03-21 09:49:00,61.0,51.1,-100.00,South,180,5.0,7.0,70,0.00,,,0.00,meteohub,2013-03-21 14:49:00,
2013-03-21 09:51:00,61.3,51.1,-100.00,SSE,158,5.0,7.0,69,0.00,,,0.00,meteohub,2013-03-21 14:51:00,
2013-03-21 09:55:00,61.5,50.9,-100.00,South,180,1.0,6.0,68,0.00,,,0.00,meteohub,2013-03-21 14:55:00,
2013-03-21 09:57:00,61.5,50.9,-100.00,South,180,6.0,6.0,68,0.00,,,0.00,meteohub,2013-03-21 14:57:00,
2013-03-21 10:01:00,61.3,50.4,-100.00,SSE,158,1.0,6.0,67,0.00,,,0.00,meteohub,2013-03-21 15:01:00,
2013-03-21 10:03:00,61.5,50.5,-100.00,SSW,203,3.0,6.0,67,0.00,,,0.00,meteohub,2013-03-21 15:03:00,
2013-03-21 10:05:00,61.3,50.4,-100.00,South,180,5.0,6.0,67,0.00,,,0.00,meteohub,2013-03-21 15:05:00,
2013-03-21 10:07:00,61.5,50.5,-100.00,SW,225,2.0,6.0,67,0.00,,,0.00,meteohub,2013-03-21 15:07:00,
2013-03-21 10:11:00,61.5,50.5,-100.00,SW,225,6.0,6.0,67,0.00,,,0.00,meteohub,2013-03-21 15:11:00,
2013-03-21 10:15:00,61.5,50.5,-100.00,SSW,203,5.0,6.0,67,0.00,,,0.00,meteohub,2013-03-21 15:15:00,
2013-03-21 10:17:00,61.5,50.5,-100.00,SE,135,2.0,6.0,67,0.00,,,0.00,meteohub,2013-03-21 15:17:00,
2013-03-21 10:19:00,61.7,50.7,-100.00,South,180,5.0,6.0,67,0.00,,,0.00,meteohub,2013-03-21 15:19:00,
2013-03-21 10:23:00,61.9,50.7,-100.00,West,270,3.0,6.0,67,0.00,,,0.00,meteohub,2013-03-21 15:23:00,
2013-03-21 10:27:00,61.9,50.7,-100.00,South,180,4.0,6.0,67,0.00,,,0.00,meteohub,2013-03-21 15:27:00,
2013-03-21 10:29:00,61.9,50.7,-100.00,SSW,203,4.0,6.0,67,0.00,,,0.00,meteohub,2013-03-21 15:29:00,
2013-03-21 10:34:00,61.9,50.7,-100.00,WSW,248,5.0,5.0,67,0.00,,,0.00,meteohub,2013-03-21 15:34:00,
2013-03-21 10:40:00,62.1,50.9,-100.00,SSW,203,7.0,7.0,67,0.00,,,0.00,meteohub,2013-03-21 15:40:00,
2013-03-21 10:42:00,62.1,50.9,-100.00,SSW,203,7.0,9.0,67,0.00,,,0.00,meteohub,2013-03-21 15:42:00,
2013-03-21 10:46:00,62.2,51.6,-100.00,SSW,203,6.0,9.0,68,0.00,,,0.00,meteohub,2013-03-21 15:46:00,
2013-03-21 10:47:00,62.4,51.8,-100.00,South,180,3.0,9.0,68,0.00,,,0.00,meteohub,2013-03-21 15:47:00,
2013-03-21 10:48:00,62.4,51.8,-100.00,South,180,3.0,9.0,68,0.00,,,0.00,meteohub,2013-03-21 15:48:00,
2013-03-21 10:52:00,63.0,52.2,-100.00,SSW,203,4.0,9.0,68,0.00,,,0.00,meteohub,2013-03-21 15:52:00,
2013-03-21 10:54:00,63.1,52.3,-100.00,SSW,203,6.0,9.0,68,0.00,,,0.00,meteohub,2013-03-21 15:54:00,
2013-03-21 10:58:00,63.7,52.5,-100.00,South,180,7.0,7.0,67,0.00,,,0.00,meteohub,2013-03-21 15:58:00,
2013-03-21 11:00:00,64.0,52.5,-100.00,South,180,4.0,7.0,66,0.00,,,0.00,meteohub,2013-03-21 16:00:00,
2013-03-21 11:02:00,64.2,52.7,-100.00,South,180,4.0,7.0,66,0.00,,,0.00,meteohub,2013-03-21 16:02:00,
2013-03-21 11:04:00,64.4,52.3,-100.00,SSW,203,2.0,7.0,65,0.00,,,0.00,meteohub,2013-03-21 16:04:00,
2013-03-21 11:06:00,64.8,53.1,-100.00,South,180,3.0,7.0,66,0.00,,,0.00,meteohub,2013-03-21 16:06:00,
2013-03-21 11:10:00,65.1,53.1,-100.00,SSW,203,4.0,7.0,65,0.00,,,0.00,meteohub,2013-03-21 16:10:00,
2013-03-21 11:12:00,65.7,53.2,-100.00,SSE,158,5.0,7.0,64,0.00,,,0.00,meteohub,2013-03-21 16:12:00,
2013-03-21 11:14:00,65.8,53.2,-100.00,SSE,158,7.0,7.0,64,0.00,,,0.00,meteohub,2013-03-21 16:14:00,
2013-03-21 11:17:00,65.8,52.9,-100.00,SSE,158,3.0,5.0,63,0.00,,,0.00,meteohub,2013-03-21 16:17:00,
2013-03-21 11:22:00,66.2,52.9,-100.00,SE,135,2.0,7.0,62,0.00,,,0.00,meteohub,2013-03-21 16:22:00,
2013-03-21 11:24:00,66.4,52.9,-100.00,ESE,113,2.0,7.0,62,0.00,,,0.00,meteohub,2013-03-21 16:24:00,
2013-03-21 11:26:00,66.4,52.9,-100.00,ESE,113,2.0,7.0,62,0.00,,,0.00,meteohub,2013-03-21 16:26:00,
2013-03-21 11:30:00,66.6,53.1,-100.00,NNW,338,1.0,8.0,62,0.00,,,0.00,meteohub,2013-03-21 16:30:00,
2013-03-21 11:32:00,66.7,53.2,-100.00,West,270,3.0,8.0,62,0.00,,,0.00,meteohub,2013-03-21 16:32:00,
2013-03-21 11:39:00,67.1,53.2,-100.00,SSW,203,7.0,8.0,61,0.00,,,0.00,meteohub,2013-03-21 16:39:00,
2013-03-21 11:41:00,67.1,53.2,-100.00,South,180,9.0,9.0,61,0.00,,,0.00,meteohub,2013-03-21 16:41:00,
2013-03-21 11:45:00,66.9,53.1,-100.00,South,180,4.0,9.0,61,0.00,,,0.00,meteohub,2013-03-21 16:45:00,
2013-03-21 11:47:00,66.9,53.1,-100.00,SE,135,3.0,9.0,61,0.00,,,0.00,meteohub,2013-03-21 16:47:00,
2013-03-21 11:51:00,67.3,53.4,-100.00,SSE,158,5.0,9.0,61,0.00,,,0.00,meteohub,2013-03-21 16:51:00,
2013-03-21 11:55:00,67.6,53.2,-100.00,South,180,5.0,12.0,60,0.00,,,0.00,meteohub,2013-03-21 16:55:00,
2013-03-21 11:57:00,67.6,53.2,-100.00,South,180,2.0,12.0,60,0.00,,,0.00,meteohub,2013-03-21 16:57:00,
2013-03-21 11:59:00,67.6,53.2,-100.00,SSE,158,5.0,12.0,60,0.00,,,0.00,meteohub,2013-03-21 16:59:00,
2013-03-21 12:03:00,68.2,53.8,-100.00,West,270,2.0,12.0,60,0.00,,,0.00,meteohub,2013-03-21 17:03:00,
2013-03-21 12:05:00,68.4,54.0,-100.00,South,180,5.0,12.0,60,0.00,,,0.00,meteohub,2013-03-21 17:05:00,
2013-03-21 12:09:00,68.4,53.4,-100.00,SSE,158,4.0,12.0,59,0.00,,,0.00,meteohub,2013-03-21 17:09:00,
2013-03-21 12:11:00,68.4,53.4,-100.00,South,180,8.0,9.0,59,0.00,,,0.00,meteohub,2013-03-21 17:11:00,
2013-03-21 12:13:00,68.4,53.4,-100.00,South,180,8.0,9.0,59,0.00,,,0.00,meteohub,2013-03-21 17:13:00,
2013-03-21 12:15:00,68.2,53.2,-100.00,WNW,293,4.0,9.0,59,0.00,,,0.00,meteohub,2013-03-21 17:15:00,
2013-03-21 12:17:00,68.4,53.4,-100.00,SSE,158,6.0,9.0,59,0.00,,,0.00,meteohub,2013-03-21 17:17:00,
2013-03-21 12:19:00,68.2,53.2,-100.00,SSE,158,9.0,9.0,59,0.00,,,0.00,meteohub,2013-03-21 17:19:00,
2013-03-21 12:22:00,68.2,53.8,-100.00,SSW,203,11.0,11.0,60,0.00,,,0.00,meteohub,2013-03-21 17:22:00,
2013-03-21 12:24:00,68.4,53.4,-100.00,South,180,4.0,9.0,59,0.00,,,0.00,meteohub,2013-03-21 17:24:00,
2013-03-21 12:26:00,68.2,53.8,-100.00,South,180,8.0,11.0,60,0.00,,,0.00,meteohub,2013-03-21 17:26:00,
2013-03-21 12:28:00,68.2,53.8,-100.00,SSW,203,3.0,11.0,60,0.00,,,0.00,meteohub,2013-03-21 17:28:00,
2013-03-21 12:30:00,68.4,54.0,-100.00,SW,225,3.0,11.0,60,0.00,,,0.00,meteohub,2013-03-21 17:30:00,
2013-03-21 12:34:00,68.5,53.6,-100.00,SSW,203,7.0,11.0,59,0.00,,,0.00,meteohub,2013-03-21 17:34:00,
2013-03-21 12:36:00,68.5,53.6,-100.00,West,270,2.0,11.0,59,0.00,,,0.00,meteohub,2013-03-21 17:36:00,
2013-03-21 12:42:00,68.5,53.6,-100.00,SSE,158,4.0,11.0,59,0.00,,,0.00,meteohub,2013-03-21 17:42:00,
2013-03-21 12:44:00,68.7,53.8,-100.00,South,180,1.0,11.0,59,0.00,,,0.00,meteohub,2013-03-21 17:44:00,
2013-03-21 12:48:00,68.7,53.8,-100.00,WSW,248,8.0,11.0,59,0.00,,,0.00,meteohub,2013-03-21 17:48:00,
2013-03-21 12:50:00,68.7,53.8,-100.00,SW,225,2.0,8.0,59,0.00,,,0.00,meteohub,2013-03-21 17:50:00,
2013-03-21 12:52:00,68.5,53.2,-100.00,WSW,248,12.0,12.0,58,0.00,,,0.00,meteohub,2013-03-21 17:52:00,
2013-03-21 12:56:00,68.7,53.8,-100.00,SSW,203,10.0,12.0,59,0.00,,,0.00,meteohub,2013-03-21 17:56:00,
2013-03-21 12:58:00,68.9,53.6,-100.00,SSE,158,4.0,12.0,58,0.00,,,0.00,meteohub,2013-03-21 17:58:00,
2013-03-21 13:02:00,69.1,53.6,-100.00,South,180,6.0,12.0,58,0.00,,,0.00,meteohub,2013-03-21 18:02:00,
2013-03-21 13:04:00,69.3,53.8,-100.00,SSE,158,5.0,12.0,58,0.00,,,0.00,meteohub,2013-03-21 18:04:00,
2013-03-21 13:08:00,69.3,53.8,-100.00,West,270,5.0,12.0,58,0.00,,,0.00,meteohub,2013-03-21 18:08:00,
2013-03-21 13:10:00,69.1,53.6,-100.00,SE,135,3.0,10.0,58,0.00,,,0.00,meteohub,2013-03-21 18:10:00,
2013-03-21 13:14:00,69.1,53.6,-100.00,SSE,158,2.0,10.0,58,0.00,,,0.00,meteohub,2013-03-21 18:14:00,
2013-03-21 13:17:00,69.4,54.0,-100.00,SE,135,4.0,8.0,58,0.00,,,0.00,meteohub,2013-03-21 18:17:00,
2013-03-21 13:19:00,69.6,54.1,-100.00,SW,225,5.0,8.0,58,0.00,,,0.00,meteohub,2013-03-21 18:19:00,
2013-03-21 13:21:00,69.6,54.1,-100.00,SW,225,5.0,5.0,58,0.00,,,0.00,meteohub,2013-03-21 18:21:00,
2013-03-21 13:23:00,69.8,54.3,-100.00,SSE,158,1.0,5.0,58,0.00,,,0.00,meteohub,2013-03-21 18:23:00,
2013-03-21 13:27:00,70.3,54.9,-100.00,SSW,203,8.0,8.0,58,0.00,,,0.00,meteohub,2013-03-21 18:27:00,
2013-03-21 13:31:00,70.9,55.4,-100.00,WSW,248,3.0,8.0,58,0.00,,,0.00,meteohub,2013-03-21 18:31:00,
2013-03-21 13:32:00,70.9,55.4,-100.00,WSW,248,3.0,8.0,58,0.00,,,0.00,meteohub,2013-03-21 18:32:00,
2013-03-21 13:37:00,71.2,55.2,-100.00,SSW,203,4.0,9.0,57,0.00,,,0.00,meteohub,2013-03-21 18:37:00,
2013-03-21 13:39:00,71.2,55.2,-100.00,WSW,248,2.0,9.0,57,0.00,,,0.00,meteohub,2013-03-21 18:39:00,
2013-03-21 13:43:00,71.4,54.9,-100.00,WSW,248,4.0,9.0,56,0.00,,,0.00,meteohub,2013-03-21 18:43:00,
2013-03-21 13:45:00,71.4,54.9,-100.00,West,270,2.0,10.0,56,0.00,,,0.00,meteohub,2013-03-21 18:45:00,
2013-03-21 13:47:00,71.4,54.9,-100.00,SSW,203,4.0,10.0,56,0.00,,,0.00,meteohub,2013-03-21 18:47:00,
2013-03-21 13:49:00,71.4,54.9,-100.00,SSW,203,5.0,10.0,56,0.00,,,0.00,meteohub,2013-03-21 18:49:00,
2013-03-21 13:53:00,71.1,55.0,-100.00,SSW,203,11.0,11.0,57,0.00,,,0.00,meteohub,2013-03-21 18:53:00,
2013-03-21 13:55:00,71.1,55.0,-100.00,West,270,4.0,11.0,57,0.00,,,0.00,meteohub,2013-03-21 18:55:00,
2013-03-21 13:57:00,70.9,55.4,-100.00,South,180,6.0,11.0,58,0.00,,,0.00,meteohub,2013-03-21 18:57:00,
2013-03-21 13:59:00,70.9,55.4,-100.00,SSE,158,9.0,11.0,58,0.00,,,0.00,meteohub,2013-03-21 18:59:00,
2013-03-21 14:02:00,70.9,55.4,-100.00,SSW,203,4.0,11.0,58,0.00,,,0.00,meteohub,2013-03-21 19:02:00,
2013-03-21 14:05:00,70.7,55.2,-100.00,West,270,6.0,11.0,58,0.00,,,0.00,meteohub,2013-03-21 19:05:00,
2013-03-21 14:07:00,70.5,55.6,-100.00,WSW,248,8.0,11.0,59,0.00,,,0.00,meteohub,2013-03-21 19:07:00,
2013-03-21 14:09:00,70.5,55.6,-100.00,SSW,203,4.0,11.0,59,0.00,,,0.00,meteohub,2013-03-21 19:09:00,
2013-03-21 14:11:00,70.3,55.4,-100.00,West,270,16.0,16.0,59,0.00,,,0.00,meteohub,2013-03-21 19:11:00,
2013-03-21 14:17:00,70.3,55.4,-100.00,SSE,158,3.0,16.0,59,0.00,,,0.00,meteohub,2013-03-21 19:17:00,
2013-03-21 14:18:00,70.3,55.4,-100.00,SSE,158,3.0,16.0,59,0.00,,,0.00,meteohub,2013-03-21 19:18:00,
2013-03-21 14:20:00,70.3,55.4,-100.00,SSE,158,3.0,16.0,59,0.00,,,0.00,meteohub,2013-03-21 19:20:00,
2013-03-21 14:24:00,70.7,56.1,-100.00,South,180,6.0,16.0,60,0.00,,,0.00,meteohub,2013-03-21 19:24:00,
2013-03-21 14:26:00,70.9,56.3,-100.00,West,270,1.0,16.0,60,0.00,,,0.00,meteohub,2013-03-21 19:26:00,
2013-03-21 14:30:00,71.4,56.8,-100.00,SSW,203,12.0,12.0,60,0.00,,,0.00,meteohub,2013-03-21 19:30:00,
2013-03-21 14:32:00,71.4,56.3,-100.00,SW,225,4.0,8.0,59,0.00,,,0.00,meteohub,2013-03-21 19:32:00,
2013-03-21 14:36:00,71.4,56.3,-100.00,SSW,203,3.0,12.0,59,0.00,,,0.00,meteohub,2013-03-21 19:36:00,
2013-03-21 14:38:00,71.4,56.8,-100.00,SE,135,2.0,12.0,60,0.00,,,0.00,meteohub,2013-03-21 19:38:00,
2013-03-21 14:42:00,71.4,56.8,-100.00,SW,225,6.0,12.0,60,0.00,,,0.00,meteohub,2013-03-21 19:42:00,
2013-03-21 14:44:00,71.4,56.8,-100.00,SW,225,5.0,12.0,60,0.00,,,0.00,meteohub,2013-03-21 19:44:00,
2013-03-21 14:47:00,71.4,56.8,-100.00,SSE,158,14.0,14.0,60,0.00,,,0.00,meteohub,2013-03-21 19:47:00,
2013-03-21 14:52:00,71.2,56.7,-100.00,South,180,9.0,14.0,60,0.00,,,0.00,meteohub,2013-03-21 19:52:00,
2013-03-21 14:56:00,70.9,56.3,-100.00,SSW,203,10.0,14.0,60,0.00,,,0.00,meteohub,2013-03-21 19:56:00,
2013-03-21 15:00:00,70.7,56.1,-100.00,South,180,7.0,14.0,60,0.00,,,0.00,meteohub,2013-03-21 20:00:00,
2013-03-21 15:02:00,70.5,55.9,-100.00,SE,135,4.0,14.0,60,0.00,,,0.00,meteohub,2013-03-21 20:02:00,
2013-03-21 15:06:00,70.7,56.7,-100.00,South,180,2.0,10.0,61,0.00,,,0.00,meteohub,2013-03-21 20:06:00,
2013-03-21 15:08:00,71.2,57.0,-100.00,SSW,203,8.0,10.0,61,0.00,,,0.00,meteohub,2013-03-21 20:08:00,
2013-03-21 15:11:00,71.4,57.2,-100.00,SSE,158,5.0,10.0,61,0.00,,,0.00,meteohub,2013-03-21 20:11:00,
2013-03-21 15:17:00,72.0,57.4,-100.00,SW,225,1.0,8.0,60,0.00,,,0.00,meteohub,2013-03-21 20:17:00,
2013-03-21 15:19:00,72.1,57.6,-100.00,NE,45,6.0,8.0,60,0.00,,,0.00,meteohub,2013-03-21 20:19:00,
2013-03-21 15:25:00,71.8,57.2,-100.00,SSW,203,4.0,8.0,60,0.00,,,0.00,meteohub,2013-03-21 20:25:00,
2013-03-21 15:27:00,71.8,57.2,-100.00,SW,225,5.0,6.0,60,0.00,,,0.00,meteohub,2013-03-21 20:27:00,
2013-03-21 15:31:00,71.8,57.2,-100.00,SE,135,7.0,7.0,60,0.00,,,0.00,meteohub,2013-03-21 20:31:00,
2013-03-21 15:33:00,71.4,56.8,-100.00,SSE,158,4.0,7.0,60,0.00,,,0.00,meteohub,2013-03-21 20:33:00,
2013-03-21 15:39:00,71.2,56.7,-100.00,SSW,203,4.0,7.0,60,0.00,,,0.00,meteohub,2013-03-21 20:39:00,
2013-03-21 15:41:00,71.4,56.8,-100.00,East,90,2.0,7.0,60,0.00,,,0.00,meteohub,2013-03-21 20:41:00,
2013-03-21 15:43:00,71.4,56.8,-100.00,SSE,158,2.0,7.0,60,0.00,,,0.00,meteohub,2013-03-21 20:43:00,
2013-03-21 15:47:00,71.4,56.8,-100.00,SSW,203,3.0,7.0,60,0.00,,,0.00,meteohub,2013-03-21 20:47:00,
2013-03-21 15:49:00,71.4,57.2,-100.00,South,180,1.0,7.0,61,0.00,,,0.00,meteohub,2013-03-21 20:49:00,
2013-03-21 15:52:00,71.4,57.2,-100.00,SSE,158,6.0,6.0,61,0.00,,,0.00,meteohub,2013-03-21 20:52:00,
2013-03-21 15:56:00,71.4,56.8,-100.00,SE,135,4.0,6.0,60,0.00,,,0.00,meteohub,2013-03-21 20:56:00,
2013-03-21 15:58:00,71.4,56.8,-100.00,WNW,293,2.0,6.0,60,0.00,,,0.00,meteohub,2013-03-21 20:58:00,
2013-03-21 16:00:00,71.4,56.8,-100.00,SSW,203,7.0,7.0,60,0.00,,,0.00,meteohub,2013-03-21 21:00:00,
2013-03-21 16:06:00,70.7,56.7,-100.00,SSE,158,9.0,9.0,61,0.00,,,0.00,meteohub,2013-03-21 21:06:00,
2013-03-21 16:10:00,70.5,56.8,-100.00,SSW,203,9.0,9.0,62,0.00,,,0.00,meteohub,2013-03-21 21:10:00,
2013-03-21 16:14:00,70.3,56.7,-100.00,SW,225,6.0,9.0,62,0.00,,,0.00,meteohub,2013-03-21 21:14:00,
2013-03-21 16:16:00,70.2,56.5,-100.00,South,180,4.0,9.0,62,0.00,,,0.00,meteohub,2013-03-21 21:16:00,
2013-03-21 16:17:00,70.2,56.5,-100.00,South,180,4.0,9.0,62,0.00,,,0.00,meteohub,2013-03-21 21:17:00,
2013-03-21 16:20:00,70.3,57.2,-100.00,South,180,5.0,9.0,63,0.00,,,0.00,meteohub,2013-03-21 21:20:00,
2013-03-21 16:22:00,70.7,57.6,-100.00,West,270,5.0,9.0,63,0.00,,,0.00,meteohub,2013-03-21 21:22:00,
2013-03-21 16:24:00,70.9,57.2,-100.00,WSW,248,4.0,9.0,62,0.00,,,0.00,meteohub,2013-03-21 21:24:00,
2013-03-21 16:29:00,71.4,57.2,-100.00,SSW,203,7.0,9.0,61,0.00,,,0.00,meteohub,2013-03-21 21:29:00,
2013-03-21 16:31:00,71.4,57.2,-100.00,SSW,203,7.0,8.0,61,0.00,,,0.00,meteohub,2013-03-21 21:31:00,
2013-03-21 16:32:00,71.8,57.6,-100.00,SW,225,4.0,8.0,61,0.00,,,0.00,meteohub,2013-03-21 21:32:00,
2013-03-21 16:33:00,72.0,57.7,-100.00,SE,135,2.0,8.0,61,0.00,,,0.00,meteohub,2013-03-21 21:33:00,
2013-03-21 16:37:00,72.3,57.7,-100.00,SSE,158,8.0,8.0,60,0.00,,,0.00,meteohub,2013-03-21 21:37:00,
2013-03-21 16:41:00,72.5,57.7,-100.00,WSW,248,5.0,8.0,60,0.00,,,0.00,meteohub,2013-03-21 21:41:00,
2013-03-21 16:43:00,72.5,57.4,-100.00,WSW,248,3.0,8.0,59,0.00,,,0.00,meteohub,2013-03-21 21:43:00,
2013-03-21 16:47:00,72.5,57.4,-100.00,South,180,5.0,8.0,59,0.00,,,0.00,meteohub,2013-03-21 21:47:00,
2013-03-21 16:51:00,72.1,57.0,-100.00,SW,225,3.0,8.0,59,0.00,,,0.00,meteohub,2013-03-21 21:51:00,
2013-03-21 16:53:00,72.1,57.0,-100.00,SW,225,6.0,8.0,59,0.00,,,0.00,meteohub,2013-03-21 21:53:00,
2013-03-21 16:57:00,72.1,57.6,-100.00,SSE,158,2.0,7.0,60,0.00,,,0.00,meteohub,2013-03-21 21:57:00,
2013-03-21 17:01:00,72.1,57.6,-100.00,SW,225,3.0,7.0,60,0.00,,,0.00,meteohub,2013-03-21 22:01:00,
2013-03-21 17:02:00,72.1,57.6,-100.00,SW,225,3.0,7.0,60,0.00,,,0.00,meteohub,2013-03-21 22:02:00,
2013-03-21 17:03:00,71.8,57.2,-100.00,SE,135,5.0,7.0,60,0.00,,,0.00,meteohub,2013-03-21 22:03:00,
2013-03-21 17:07:00,71.4,56.8,-100.00,South,180,0.0,9.0,60,0.00,,,0.00,meteohub,2013-03-21 22:07:00,
2013-03-21 17:09:00,71.2,57.0,-100.00,SSW,203,3.0,9.0,61,0.00,,,0.00,meteohub,2013-03-21 22:09:00,
2013-03-21 17:13:00,71.4,57.2,-100.00,South,180,3.0,9.0,61,0.00,,,0.00,meteohub,2013-03-21 22:13:00,
2013-03-21 17:15:00,71.4,57.2,-100.00,WSW,248,5.0,9.0,61,0.00,,,0.00,meteohub,2013-03-21 22:15:00,
2013-03-21 17:17:00,71.4,57.2,-100.00,WSW,248,5.0,9.0,61,0.00,,,0.00,meteohub,2013-03-21 22:17:00,
2013-03-21 17:22:00,70.9,56.8,-100.00,SW,225,1.0,6.0,61,0.00,,,0.00,meteohub,2013-03-21 22:22:00,
2013-03-21 17:26:00,70.7,56.7,-100.00,South,180,15.0,15.0,61,0.00,,,0.00,meteohub,2013-03-21 22:26:00,
2013-03-21 17:30:00,70.9,56.8,-100.00,SSW,203,7.0,7.0,61,0.00,,,0.00,meteohub,2013-03-21 22:30:00,
2013-03-21 17:32:00,71.1,57.4,-100.00,SSE,158,3.0,15.0,62,0.00,,,0.00,meteohub,2013-03-21 22:32:00,
2013-03-21 17:36:00,71.4,57.2,-100.00,SSW,203,3.0,15.0,61,0.00,,,0.00,meteohub,2013-03-21 22:36:00,
2013-03-21 17:38:00,71.4,57.2,-100.00,SE,135,6.0,15.0,61,0.00,,,0.00,meteohub,2013-03-21 22:38:00,
2013-03-21 17:40:00,71.4,57.2,-100.00,South,180,3.0,15.0,61,0.00,,,0.00,meteohub,2013-03-21 22:40:00,
2013-03-21 17:44:00,71.4,57.2,-100.00,South,180,6.0,15.0,61,0.00,,,0.00,meteohub,2013-03-21 22:44:00,
2013-03-21 17:46:00,71.4,57.2,-100.00,South,180,3.0,7.0,61,0.00,,,0.00,meteohub,2013-03-21 22:46:00,
2013-03-21 17:48:00,71.4,57.2,-100.00,WSW,248,9.0,9.0,61,0.00,,,0.00,meteohub,2013-03-21 22:48:00,
2013-03-21 17:50:00,71.4,57.2,-100.00,South,180,2.0,9.0,61,0.00,,,0.00,meteohub,2013-03-21 22:50:00,
2013-03-21 17:52:00,71.4,57.2,-100.00,NW,315,6.0,9.0,61,0.00,,,0.00,meteohub,2013-03-21 22:52:00,
2013-03-21 17:54:00,71.4,57.2,-100.00,SW,225,5.0,9.0,61,0.00,,,0.00,meteohub,2013-03-21 22:54:00,
2013-03-21 17:58:00,71.4,57.2,-100.00,ESE,113,9.0,9.0,61,0.00,,,0.00,meteohub,2013-03-21 22:58:00,
2013-03-21 18:00:00,71.4,57.2,-100.00,SE,135,9.0,9.0,61,0.00,,,0.00,meteohub,2013-03-21 23:00:00,
2013-03-21 18:02:00,71.2,57.0,-100.00,SE,135,0.0,9.0,61,0.00,,,0.00,meteohub,2013-03-21 23:02:00,
2013-03-21 18:06:00,71.2,57.0,-100.00,SSW,203,4.0,9.0,61,0.00,,,0.00,meteohub,2013-03-21 23:06:00,
2013-03-21 18:10:00,71.2,57.0,-100.00,SSE,158,2.0,9.0,61,0.00,,,0.00,meteohub,2013-03-21 23:10:00,
2013-03-21 18:12:00,71.2,57.0,-100.00,SSW,203,3.0,9.0,61,0.00,,,0.00,meteohub,2013-03-21 23:12:00,
2013-03-21 18:16:00,71.2,57.0,-100.00,WSW,248,2.0,9.0,61,0.00,,,0.00,meteohub,2013-03-21 23:16:00,
2013-03-21 18:18:00,71.2,57.0,-100.00,SW,225,3.0,9.0,61,0.00,,,0.00,meteohub,2013-03-21 23:18:00,
2013-03-21 18:20:00,71.2,57.0,-100.00,West,270,2.0,6.0,61,0.00,,,0.00,meteohub,2013-03-21 23:20:00,
2013-03-21 18:22:00,71.2,57.0,-100.00,South,180,6.0,6.0,61,0.00,,,0.00,meteohub,2013-03-21 23:22:00,
2013-03-21 18:26:00,71.2,57.0,-100.00,West,270,6.0,6.0,61,0.00,,,0.00,meteohub,2013-03-21 23:26:00,
2013-03-21 18:30:00,70.9,56.8,-100.00,SE,135,4.0,6.0,61,0.00,,,0.00,meteohub,2013-03-21 23:30:00,
2013-03-21 18:32:00,70.9,56.8,-100.00,SE,135,4.0,6.0,61,0.00,,,0.00,meteohub,2013-03-21 23:32:00,
2013-03-21 18:35:00,70.7,56.7,-100.00,WSW,248,0.0,6.0,61,0.00,,,0.00,meteohub,2013-03-21 23:35:00,
2013-03-21 18:37:00,70.7,57.0,-100.00,SSE,158,3.0,6.0,62,0.00,,,0.00,meteohub,2013-03-21 23:37:00,
2013-03-21 18:39:00,70.7,57.0,-100.00,SSE,158,3.0,6.0,62,0.00,,,0.00,meteohub,2013-03-21 23:39:00,
2013-03-21 18:41:00,70.5,56.8,-100.00,SW,225,2.0,6.0,62,0.00,,,0.00,meteohub,2013-03-21 23:41:00,
2013-03-21 18:47:00,70.3,56.7,-100.00,ESE,113,5.0,5.0,62,0.00,,,0.00,meteohub,2013-03-21 23:47:00,
2013-03-21 18:49:00,70.3,56.7,-100.00,SSE,158,4.0,5.0,62,0.00,,,0.00,meteohub,2013-03-21 23:49:00,
2013-03-21 18:53:00,70.2,56.5,-100.00,West,270,2.0,5.0,62,0.00,,,0.00,meteohub,2013-03-21 23:53:00,
2013-03-21 18:57:00,70.0,56.8,-100.00,SSE,158,8.0,8.0,63,0.00,,,0.00,meteohub,2013-03-21 23:57:00,
2013-03-21 18:59:00,70.0,56.8,-100.00,South,180,2.0,5.0,63,0.00,,,0.00,meteohub,2013-03-21 23:59:00,
2013-03-21 19:01:00,70.0,56.8,-100.00,WSW,248,2.0,8.0,63,0.00,,,0.00,meteohub,2013-03-22 00:01:00,
2013-03-21 19:02:00,70.0,56.8,-100.00,WSW,248,2.0,8.0,63,0.00,,,0.00,meteohub,2013-03-22 00:02:00,
2013-03-21 19:03:00,69.8,56.7,-100.00,SSW,203,7.0,8.0,63,0.00,,,0.00,meteohub,2013-03-22 00:03:00,
2013-03-21 19:07:00,69.6,56.5,-100.00,WNW,293,1.0,8.0,63,0.00,,,0.00,meteohub,2013-03-22 00:07:00,
2013-03-21 19:09:00,69.6,56.5,-100.00,South,180,1.0,8.0,63,0.00,,,0.00,meteohub,2013-03-22 00:09:00,
2013-03-21 19:13:00,69.6,56.5,-100.00,SSW,203,4.0,8.0,63,0.00,,,0.00,meteohub,2013-03-22 00:13:00,
2013-03-21 19:17:00,69.6,56.8,-100.00,SW,225,3.0,7.0,64,0.00,,,0.00,meteohub,2013-03-22 00:17:00,
2013-03-21 19:19:00,69.6,56.8,-100.00,SSE,158,7.0,7.0,64,0.00,,,0.00,meteohub,2013-03-22 00:19:00,
2013-03-21 19:25:00,69.4,56.7,-100.00,SE,135,3.0,7.0,64,0.00,,,0.00,meteohub,2013-03-22 00:25:00,
2013-03-21 19:27:00,69.3,57.0,-100.00,SE,135,5.0,7.0,65,0.00,,,0.00,meteohub,2013-03-22 00:27:00,
2013-03-21 19:31:00,69.1,56.8,-100.00,SSW,203,0.0,7.0,65,0.00,,,0.00,meteohub,2013-03-22 00:31:00,
2013-03-21 19:35:00,68.9,56.7,-100.00,South,180,2.0,7.0,65,0.00,,,0.00,meteohub,2013-03-22 00:35:00,
2013-03-21 19:37:00,68.7,56.5,-100.00,SSE,158,4.0,7.0,65,0.00,,,0.00,meteohub,2013-03-22 00:37:00,
2013-03-21 19:42:00,68.7,56.5,-100.00,SSE,158,2.0,5.0,65,0.00,,,0.00,meteohub,2013-03-22 00:42:00,
2013-03-21 19:46:00,68.5,56.7,-100.00,South,180,3.0,4.0,66,0.00,,,0.00,meteohub,2013-03-22 00:46:00,
2013-03-21 19:47:00,68.5,56.7,-100.00,South,180,3.0,4.0,66,0.00,,,0.00,meteohub,2013-03-22 00:47:00,
2013-03-21 19:48:00,68.4,56.5,-100.00,South,180,2.0,4.0,66,0.00,,,0.00,meteohub,2013-03-22 00:48:00,
2013-03-21 19:52:00,68.2,56.3,-100.00,South,180,3.0,4.0,66,0.00,,,0.00,meteohub,2013-03-22 00:52:00,
2013-03-21 19:54:00,68.2,56.3,-100.00,SSW,203,0.0,4.0,66,0.00,,,0.00,meteohub,2013-03-22 00:54:00,
2013-03-21 19:58:00,68.2,56.8,-100.00,South,180,2.0,4.0,67,0.00,,,0.00,meteohub,2013-03-22 00:58:00,
2013-03-21 20:00:00,67.8,56.5,-100.00,South,180,4.0,4.0,67,0.00,,,0.00,meteohub,2013-03-22 01:00:00,
2013-03-21 20:02:00,67.8,56.5,-100.00,South,180,3.0,3.0,67,0.00,,,0.00,meteohub,2013-03-22 01:02:00,
2013-03-21 20:04:00,67.8,56.5,-100.00,SSW,203,5.0,5.0,67,0.00,,,0.00,meteohub,2013-03-22 01:04:00,
2013-03-21 20:08:00,67.6,56.3,-100.00,South,180,0.0,5.0,67,0.00,,,0.00,meteohub,2013-03-22 01:08:00,
2013-03-21 20:10:00,67.6,56.7,-100.00,SSW,203,2.0,5.0,68,0.00,,,0.00,meteohub,2013-03-22 01:10:00,
2013-03-21 20:12:00,67.5,56.5,-100.00,SSE,158,1.0,5.0,68,0.00,,,0.00,meteohub,2013-03-22 01:12:00,
2013-03-21 20:14:00,67.5,56.5,-100.00,SSE,158,4.0,5.0,68,0.00,,,0.00,meteohub,2013-03-22 01:14:00,
2013-03-21 20:17:00,67.5,56.5,-100.00,SSE,158,1.0,5.0,68,0.00,,,0.00,meteohub,2013-03-22 01:17:00,
2013-03-21 20:18:00,67.3,56.3,-100.00,SSE,158,1.0,5.0,68,0.00,,,0.00,meteohub,2013-03-22 01:18:00,
2013-03-21 20:22:00,67.3,56.3,-100.00,South,180,0.0,4.0,68,0.00,,,0.00,meteohub,2013-03-22 01:22:00,
2013-03-21 20:24:00,67.1,56.1,-100.00,SSW,203,0.0,4.0,68,0.00,,,0.00,meteohub,2013-03-22 01:24:00,
2013-03-21 20:28:00,67.1,56.1,-100.00,South,180,2.0,4.0,68,0.00,,,0.00,meteohub,2013-03-22 01:28:00,
2013-03-21 20:32:00,66.9,56.5,-100.00,South,180,1.0,2.0,69,0.00,,,0.00,meteohub,2013-03-22 01:32:00,
2013-03-21 20:38:00,66.7,56.3,-100.00,South,180,0.0,2.0,69,0.00,,,0.00,meteohub,2013-03-22 01:38:00,
2013-03-21 20:40:00,66.7,56.3,-100.00,South,180,2.0,2.0,69,0.00,,,0.00,meteohub,2013-03-22 01:40:00,
2013-03-21 20:44:00,66.7,56.3,-100.00,SSW,203,2.0,2.0,69,0.00,,,0.00,meteohub,2013-03-22 01:44:00,
2013-03-21 20:46:00,66.6,56.5,-100.00,SSW,203,0.0,2.0,70,0.00,,,0.00,meteohub,2013-03-22 01:46:00,
2013-03-21 20:48:00,66.6,56.5,-100.00,SSW,203,3.0,3.0,70,0.00,,,0.00,meteohub,2013-03-22 01:48:00,
2013-03-21 20:52:00,66.4,56.3,-100.00,SSW,203,2.0,3.0,70,0.00,,,0.00,meteohub,2013-03-22 01:52:00,
2013-03-21 20:56:00,66.4,56.7,-100.00,South,180,3.0,3.0,71,0.00,,,0.00,meteohub,2013-03-22 01:56:00,
2013-03-21 21:00:00,66.2,56.5,-100.00,SSW,203,3.0,3.0,71,0.00,,,0.00,meteohub,2013-03-22 02:00:00,
2013-03-21 21:02:00,66.2,56.5,-100.00,SSW,203,3.0,3.0,71,0.00,,,0.00,meteohub,2013-03-22 02:02:00,
2013-03-21 21:07:00,66.0,56.3,-100.00,SW,225,4.0,4.0,71,0.00,,,0.00,meteohub,2013-03-22 02:07:00,
2013-03-21 21:09:00,66.0,56.3,-100.00,SW,225,4.0,4.0,71,0.00,,,0.00,meteohub,2013-03-22 02:09:00,
2013-03-21 21:13:00,66.0,56.3,-100.00,SSW,203,5.0,5.0,71,0.00,,,0.00,meteohub,2013-03-22 02:13:00,
2013-03-21 21:15:00,66.0,56.3,-100.00,South,180,1.0,4.0,71,0.00,,,0.00,meteohub,2013-03-22 02:15:00,
2013-03-21 21:17:00,66.0,56.3,-100.00,SSW,203,0.0,5.0,71,0.00,,,0.00,meteohub,2013-03-22 02:17:00,
2013-03-21 21:21:00,65.8,56.5,-100.00,SSW,203,2.0,5.0,72,0.00,,,0.00,meteohub,2013-03-22 02:21:00,
2013-03-21 21:23:00,65.8,56.5,-100.00,South,180,0.0,5.0,72,0.00,,,0.00,meteohub,2013-03-22 02:23:00,
2013-03-21 21:27:00,65.8,56.5,-100.00,South,180,2.0,5.0,72,0.00,,,0.00,meteohub,2013-03-22 02:27:00,
2013-03-21 21:29:00,65.8,56.5,-100.00,SSE,158,1.0,5.0,72,0.00,,,0.00,meteohub,2013-03-22 02:29:00,
2013-03-21 21:32:00,65.8,56.5,-100.00,ESE,113,0.0,4.0,72,0.00,,,0.00,meteohub,2013-03-22 02:32:00,
2013-03-21 21:33:00,65.7,56.3,-100.00,SSW,203,2.0,4.0,72,0.00,,,0.00,meteohub,2013-03-22 02:33:00,
2013-03-21 21:35:00,65.7,56.3,-100.00,SSW,203,3.0,3.0,72,0.00,,,0.00,meteohub,2013-03-22 02:35:00,
2013-03-21 21:39:00,65.7,56.3,-100.00,SSE,158,0.0,3.0,72,0.00,,,0.00,meteohub,2013-03-22 02:39:00,
2013-03-21 21:41:00,65.5,56.3,-100.00,WNW,293,0.0,3.0,72,0.00,,,0.00,meteohub,2013-03-22 02:41:00,
2013-03-21 21:47:00,65.5,56.7,-100.00,South,180,4.0,4.0,73,0.00,,,0.00,meteohub,2013-03-22 02:47:00,
2013-03-21 21:49:00,65.5,56.7,-100.00,SSW,203,2.0,3.0,73,0.00,,,0.00,meteohub,2013-03-22 02:49:00,
2013-03-21 21:55:00,65.3,56.1,-100.00,West,270,0.0,4.0,72,0.00,,,0.00,meteohub,2013-03-22 02:55:00,
2013-03-21 21:57:00,65.3,56.5,-100.00,SSW,203,2.0,4.0,73,0.00,,,0.00,meteohub,2013-03-22 02:57:00,
2013-03-21 21:59:00,65.3,56.5,-100.00,South,180,0.0,4.0,73,0.00,,,0.00,meteohub,2013-03-22 02:59:00,
2013-03-21 22:02:00,65.1,56.3,-100.00,South,180,0.0,4.0,73,0.00,,,0.00,meteohub,2013-03-22 03:02:00,
2013-03-21 22:03:00,65.1,56.3,-100.00,SW,225,3.0,4.0,73,0.00,,,0.00,meteohub,2013-03-22 03:03:00,
2013-03-21 22:05:00,65.1,56.3,-100.00,South,180,3.0,3.0,73,0.00,,,0.00,meteohub,2013-03-22 03:05:00,
2013-03-21 22:09:00,65.1,56.3,-100.00,West,270,0.0,3.0,73,0.00,,,0.00,meteohub,2013-03-22 03:09:00,
2013-03-21 22:14:00,65.1,56.7,-100.00,WSW,248,0.0,3.0,74,0.00,,,0.00,meteohub,2013-03-22 03:14:00,
2013-03-21 22:17:00,64.9,56.5,-100.00,South,180,1.0,3.0,74,0.00,,,0.00,meteohub,2013-03-22 03:17:00,
2013-03-21 22:18:00,65.1,56.7,-100.00,SSW,203,2.0,3.0,74,0.00,,,0.00,meteohub,2013-03-22 03:18:00,
2013-03-21 22:20:00,64.9,56.5,-100.00,South,180,2.0,3.0,74,0.00,,,0.00,meteohub,2013-03-22 03:20:00,
2013-03-21 22:22:00,64.9,56.5,-100.00,SSW,203,1.0,3.0,74,0.00,,,0.00,meteohub,2013-03-22 03:22:00,
2013-03-21 22:26:00,64.9,56.5,-100.00,SSE,158,0.0,2.0,74,0.00,,,0.00,meteohub,2013-03-22 03:26:00,
2013-03-21 22:28:00,64.9,56.5,-100.00,SSE,158,2.0,2.0,74,0.00,,,0.00,meteohub,2013-03-22 03:28:00,
2013-03-21 22:30:00,64.9,56.5,-100.00,West,270,1.0,2.0,74,0.00,,,0.00,meteohub,2013-03-22 03:30:00,
2013-03-21 22:32:00,64.9,56.5,-100.00,SE,135,0.0,2.0,74,0.00,,,0.00,meteohub,2013-03-22 03:32:00,
2013-03-21 22:34:00,64.9,56.5,-100.00,South,180,1.0,2.0,74,0.00,,,0.00,meteohub,2013-03-22 03:34:00,
2013-03-21 22:38:00,64.8,56.3,-100.00,SSE,158,0.0,2.0,74,0.00,,,0.00,meteohub,2013-03-22 03:38:00,
2013-03-21 22:40:00,64.8,56.7,-100.00,SSE,158,2.0,2.0,75,0.00,,,0.00,meteohub,2013-03-22 03:40:00,
2013-03-21 22:42:00,64.8,56.7,-100.00,South,180,2.0,2.0,75,0.00,,,0.00,meteohub,2013-03-22 03:42:00,
2013-03-21 22:47:00,64.8,56.7,-100.00,SSW,203,2.0,2.0,75,0.00,,,0.00,meteohub,2013-03-22 03:47:00,
2013-03-21 22:48:00,64.8,56.7,-100.00,WSW,248,1.0,2.0,75,0.00,,,0.00,meteohub,2013-03-22 03:48:00,
2013-03-21 22:52:00,64.8,56.7,-100.00,SSE,158,0.0,2.0,75,0.00,,,0.00,meteohub,2013-03-22 03:52:00,
2013-03-21 22:54:00,64.8,56.7,-100.00,SSW,203,4.0,4.0,75,0.00,,,0.00,meteohub,2013-03-22 03:54:00,
2013-03-21 22:56:00,64.8,56.7,-100.00,South,180,4.0,4.0,75,0.00,,,0.00,meteohub,2013-03-22 03:56:00,
2013-03-21 22:58:00,64.8,56.7,-100.00,SSW,203,0.0,2.0,75,0.00,,,0.00,meteohub,2013-03-22 03:58:00,
2013-03-21 23:00:00,64.8,56.7,-100.00,West,270,0.0,4.0,75,0.00,,,0.00,meteohub,2013-03-22 04:00:00,
2013-03-21 23:02:00,64.8,56.7,-100.00,West,270,0.0,4.0,75,0.00,,,0.00,meteohub,2013-03-22 04:02:00,
2013-03-21 23:06:00,64.8,56.7,-100.00,SSW,203,1.0,4.0,75,0.00,,,0.00,meteohub,2013-03-22 04:06:00,
2013-03-21 23:08:00,64.8,56.7,-100.00,SSW,203,1.0,4.0,75,0.00,,,0.00,meteohub,2013-03-22 04:08:00,
2013-03-21 23:10:00,64.8,56.7,-100.00,South,180,1.0,4.0,75,0.00,,,0.00,meteohub,2013-03-22 04:10:00,
2013-03-21 23:12:00,64.8,56.7,-100.00,South,180,2.0,4.0,75,0.00,,,0.00,meteohub,2013-03-22 04:12:00,
2013-03-21 23:17:00,64.8,56.7,-100.00,SSW,203,1.0,2.0,75,0.00,,,0.00,meteohub,2013-03-22 04:17:00,
2013-03-21 23:19:00,64.8,56.7,-100.00,SE,135,0.0,2.0,75,0.00,,,0.00,meteohub,2013-03-22 04:19:00,
2013-03-21 23:21:00,64.6,56.5,-100.00,SSW,203,0.0,2.0,75,0.00,,,0.00,meteohub,2013-03-22 04:21:00,
2013-03-21 23:27:00,64.8,57.0,-100.00,SSW,203,0.0,2.0,76,0.00,,,0.00,meteohub,2013-03-22 04:27:00,
2013-03-21 23:29:00,64.6,56.8,-100.00,SSE,158,0.0,2.0,76,0.00,,,0.00,meteohub,2013-03-22 04:29:00,
2013-03-21 23:31:00,64.6,56.8,-100.00,South,180,4.0,4.0,76,0.00,,,0.00,meteohub,2013-03-22 04:31:00,
2013-03-21 23:32:00,64.6,56.8,-100.00,South,180,4.0,4.0,76,0.00,,,0.00,meteohub,2013-03-22 04:32:00,
2013-03-21 23:35:00,64.6,56.8,-100.00,SSW,203,0.0,1.0,76,0.00,,,0.00,meteohub,2013-03-22 04:35:00,
2013-03-21 23:37:00,64.6,56.8,-100.00,SSW,203,0.0,4.0,76,0.00,,,0.00,meteohub,2013-03-22 04:37:00,
2013-03-21 23:41:00,64.6,56.8,-100.00,SSW,203,3.0,4.0,76,0.00,,,0.00,meteohub,2013-03-22 04:41:00,
2013-03-21 23:43:00,64.6,56.8,-100.00,SSW,203,3.0,4.0,76,0.00,,,0.00,meteohub,2013-03-22 04:43:00,
2013-03-21 23:45:00,64.6,56.8,-100.00,South,180,0.0,4.0,76,0.00,,,0.00,meteohub,2013-03-22 04:45:00,
2013-03-21 23:47:00,64.2,56.5,-100.00,SSE,158,0.0,4.0,76,0.00,,,0.00,meteohub,2013-03-22 04:47:00,
2013-03-21 23:53:00,64.2,56.5,-100.00,SSW,203,1.0,3.0,76,0.00,,,0.00,meteohub,2013-03-22 04:53:00,
2013-03-21 23:55:00,64.2,56.8,-100.00,South,180,1.0,3.0,77,0.00,,,0.00,meteohub,2013-03-22 04:55:00,